Wind_Speed
22 21 19 15 26 14 14 10 9 7 6 5 6 5 5 6 5 3 7 4 14 16 17 22 17 17 18 18 15 14 13 14 14 13 11 12 13 11 10 4 2 3 4 5 4 4 4 4 4
20 22 16 28 15 13 16 14 10 7 7 6 6 6 7 5 3 2 4 14 7 9 14 19 15 14 16 16 14 15 12 13 14 13 12 11 10 9 8 6 3 2 1 1 3 2 3 3 3
19 23 23 15 15 18 16 14 11 9 7 3 2 3 3 4 2 3 3 5 7 9 12 11 11 11 13 13 13 12 12 12 12 12 11 10 8 7 6 6 3 1 1 2 2 2 2 3 3
14 29 29 19 21 21 20 17 13 10 7 6 3 2 2 2 2 3 1 3 5 8 8 9 8 9 10 11 10 10 9 8 9 9 8 9 7 5 4 4 3 2 0 2 4 3 4 4 4
23 33 17 23 23 22 21 20 17 13 10 8 5 1 4 5 2 2 2 3 5 5 7 7 7 6 6 7 7 7 7 5 6 6 4 5 5 4 3 2 3 1 1 3 4 4 5 5 5
36 20 14 22 21 20 19 21 22 18 14 11 9 7 5 4 5 4 5 6 6 6 6 5 5 6 5 6 5 5 4 2 5 5 2 1 1 2 2 1 0 2 2 3 3 5 6 8 7
25 18 18 19 21 19 17 18 19 21 18 15 13 9 4 5 7 6 5 5 5 5 5 5 3 4 5 4 4 4 2 2 4 4 2 3 4 4 5 1 1 1 2 4 5 6 7 7 8
38 12 15 18 20 19 16 16 16 18 20 19 14 11 7 8 10 8 7 6 6 5 6 4 2 3 5 5 4 4 3 4 5 5 5 6 6 5 2 4 3 2 4 5 6 6 8 7 6
29 7 14 17 15 18 18 18 16 16 18 21 17 15 9 9 9 10 9 7 6 7 5 4 5 5 6 7 7 6 4 6 6 6 7 6 8 6 6 5 5 4 5 6 7 7 8 8 7
7 10 14 17 15 20 25 24 18 20 19 21 20 18 14 9 9 9 7 5 5 5 4 4 5 5 6 7 7 6 7 6 6 7 7 4 2 2 5 4 5 6 6 7 8 10 9 9 6
10 12 14 16 18 20 28 31 32 28 25 20 20 19 16 11 9 10 8 6 5 4 2 3 4 6 6 7 8 8 7 7 7 5 5 8 2 3 3 6 6 8 8 8 11 5 10 11 8
4 13 14 15 17 23 24 30 30 30 27 21 18 20 22 16 16 17 17 14 11 10 7 2 4 5 8 10 8 7 8 6 5 4 5 7 6 6 5 6 9 10 9 9 12 6 14 13 11
2 10 11 12 14 17 21 25 24 26 26 29 19 19 19 20 19 18 18 17 13 12 11 5 4 4 8 9 8 7 5 5 4 3 3 5 6 7 8 9 7 6 7 9 10 12 14 14 13
8 7 8 9 11 15 18 20 23 26 27 27 26 22 20 16 17 18 18 18 16 11 11 9 7 5 5 5 6 2 3 2 1 2 5 7 8 9 10 9 9 11 10 10 10 12 15 14 13
5 9 10 5 8 9 3 20 21 23 24 23 26 21 23 21 18 16 15 16 17 16 10 10 11 12 8 9 2 3 1 2 3 7 9 10 10 11 12 10 8 12 13 8 9 11 12 14 7
6 10 5 6 4 7 11 14 16 20 24 19 20 18 16 20 20 16 13 14 13 14 14 9 10 9 5 2 1 1 4 4 5 5 11 17 16 16 15 14 11 9 8 10 10 9 11 8 5
8 11 1 11 2 5 8 6 12 16 20 24 14 16 16 16 19 17 14 8 11 13 13 13 10 10 7 6 5 4 6 7 9 19 22 24 17 18 18 16 13 10 8 6 7 5 5 5 6
8 5 8 2 7 2 5 6 11 13 15 21 17 13 12 14 17 16 16 4 3 6 9 13 12 11 10 9 5 4 5 6 7 14 18 24 17 9 14 14 14 11 7 6 5 7 7 7 6
7 10 8 8 6 4 7 5 8 11 13 17 18 11 14 19 20 21 18 15 2 3 5 5 5 6 10 9 5 4 4 8 11 10 15 19 20 22 10 10 10 9 7 5 5 6 6 5 6
10 8 6 12 10 9 6 9 7 11 10 11 14 16 17 21 26 23 17 11 7 7 11 12 12 13 12 9 10 8 9 8 10 10 13 13 12 14 12 8 6 10 11 8 14 12 11 8 8
12 9 11 16 10 9 8 21 23 5 8 11 10 16 18 23 27 26 22 18 5 16 17 16 17 19 20 15 13 15 14 14 14 14 15 10 10 10 11 10 7 8 8 12 16 14 19 15 13
12 16 20 18 11 14 17 17 22 8 11 17 11 11 16 26 31 24 27 25 16 12 15 14 17 19 24 24 21 18 18 20 21 19 23 12 6 9 10 12 12 13 14 14 15 16 15 18 19
19 21 27 21 15 12 12 15 13 23 2 19 11 10 17 23 28 26 24 20 20 12 12 14 14 12 14 22 21 19 21 23 20 27 25 4 7 7 9 11 14 16 17 18 19 20 20 22 24
20 23 19 17 15 15 20 5 9 26 4 15 10 10 16 23 21 19 22 19 13 13 16 19 20 11 10 14 18 23 25 27 23 25 15 5 10 8 13 14 17 18 18 19 21 21 23 24 27
23 20 18 14 14 19 20 14 13 15 11 10 7 10 14 24 10 14 18 15 13 15 13 14 17 17 19 16 14 15 17 13 14 3 1 8 16 17 18 20 24 24 24 23 23 23 23 26 30
23 21 21 18 13 30 20 8 19 25 20 12 9 11 16 19 11 8 12 12 11 10 11 12 14 15 14 15 13 14 13 11 6 7 12 17 19 23 23 25 26 27 27 27 25 24 24 23 26
21 25 20 23 21 28 28 21 7 20 18 9 9 10 13 16 10 10 11 10 10 11 11 11 11 12 13 14 15 15 16 15 16 18 19 21 24 26 28 29 32 32 30 29 28 26 25 24 24
30 20 19 22 24 25 15 20 20 29 30 14 8 7 11 11 9 11 11 15 14 11 12 12 11 12 11 13 17 19 19 18 18 19 20 22 24 27 29 32 33 34 34 34 33 30 26 26 25
29 30 26 18 22 20 20 21 31 19 4 12 5 7 9 12 12 15 16 14 16 15 13 14 13 14 15 17 20 21 24 25 26 26 26 27 29 32 34 34 34 34 34 34 35 35 31 29 27
25 27 27 24 23 21 24 32 28 20 5 15 17 11 12 14 14 14 14 15 17 17 16 16 15 17 18 21 23 24 26 27 26 25 26 29 32 35 36 36 36 36 35 35 34 33 33 31 29
Wind_Direction
64 59 55 63 45 41 51 60 86 98 140 153 160 175 170 145 140 212 111 56 41 90 111 115 109 104 103 104 101 89 86 86 83 88 88 78 70 67 65 85 126 144 142 135 136 129 119 131 116
61 56 62 67 43 49 52 54 63 96 127 157 193 213 213 197 204 190 59 56 57 51 81 96 105 108 111 106 99 94 95 84 76 79 83 81 75 67 65 76 91 123 113 173 174 161 139 138 137
61 63 63 33 58 61 57 58 59 66 72 77 153 211 208 201 215 148 267 2 69 78 71 88 104 110 113 110 104 103 98 87 75 79 78 75 69 66 63 64 57 116 144 223 255 229 224 200 187
76 63 55 59 58 60 64 64 65 73 81 78 87 210 199 153 130 194 309 21 56 58 73 90 108 113 113 120 115 115 103 86 79 70 57 56 67 64 65 52 39 17 227 240 240 248 280 282 265
68 67 43 58 58 58 60 64 65 66 69 66 54 58 169 167 133 114 82 44 39 58 65 80 111 117 117 116 116 114 93 63 53 51 37 43 62 37 52 40 23 330 302 263 285 303 301 284 275
61 73 63 59 54 54 54 63 63 61 60 61 59 62 159 152 116 94 62 33 26 31 50 66 109 134 127 130 132 116 97 29 8 10 354 342 342 57 45 14 325 320 281 277 297 304 304 299 290
75 47 55 54 53 50 47 56 59 63 56 57 68 59 68 109 118 98 74 61 47 43 42 36 69 142 140 132 169 166 166 303 332 318 299 282 256 174 173 134 271 258 279 265 267 292 307 296 291
95 51 63 59 55 53 49 52 53 56 55 57 68 76 73 96 97 97 86 85 76 75 78 81 101 187 187 180 177 205 233 280 289 279 282 281 267 209 227 203 232 255 274 282 288 301 305 297 291
73 84 66 62 60 59 45 45 47 55 57 56 56 73 84 92 93 94 91 93 94 97 106 127 164 186 210 211 214 228 246 263 264 278 279 282 246 208 203 239 234 242 263 280 305 308 305 295 299
73 88 73 76 66 61 55 47 55 59 55 58 63 66 72 84 99 96 94 99 106 107 121 145 155 186 214 222 235 244 235 242 256 269 290 265 219 207 227 251 271 277 288 300 300 306 297 286 296
126 88 86 86 79 69 66 57 53 59 54 56 64 50 53 71 93 103 99 92 77 73 135 172 186 184 192 209 211 213 227 242 257 261 223 182 258 275 256 250 260 272 280 290 270 255 301 291 282
357 103 104 97 86 71 69 62 58 59 52 48 55 55 50 60 66 66 63 57 55 48 30 159 184 201 201 193 193 207 217 238 241 179 173 221 284 281 270 266 269 266 274 282 302 237 294 282 275
304 120 116 107 91 88 74 71 68 52 50 50 54 58 62 64 67 72 70 61 53 43 42 51 354 200 199 187 175 190 200 216 223 176 189 256 284 292 292 292 294 285 272 263 258 258 271 273 269
218 127 122 99 85 80 77 78 68 60 51 47 55 54 55 56 59 55 48 49 49 64 56 35 30 121 127 185 155 150 177 208 253 265 286 288 296 301 298 298 304 297 288 270 257 261 273 275 267
133 16 19 83 80 64 92 61 53 55 50 53 51 65 58 54 53 44 42 41 42 34 48 56 64 96 116 125 118 109 110 239 281 326 324 316 312 303 294 291 286 297 289 283 270 267 270 281 297
52 105 279 345 50 45 13 28 42 47 46 49 57 57 44 50 39 32 33 28 34 37 37 45 61 65 69 62 59 287 307 304 318 342 320 305 301 299 292 284 283 284 286 286 286 250 275 278 275
26 326 209 343 8 34 41 27 38 48 43 43 52 46 28 23 34 38 25 26 32 27 33 40 42 40 38 17 335 331 323 323 304 317 337 343 285 272 273 268 263 259 268 277 270 254 284 292 272
183 226 300 20 285 356 15 16 27 40 37 40 47 36 29 22 25 5 360 345 30 33 26 17 19 16 9 2 335 317 308 333 358 354 356 1 18 301 285 278 250 253 253 281 294 294 284 280 279
227 204 246 276 265 338 326 314 353 24 25 33 33 34 9 9 13 356 5 6 180 326 326 340 328 7 6 338 339 306 319 317 350 335 356 15 22 14 338 263 251 237 238 264 289 288 277 284 278
232 246 266 288 285 341 327 283 288 1 4 23 23 11 356 3 9 354 340 355 9 307 308 313 316 313 314 316 301 298 294 311 319 328 352 1 11 352 6 0 269 220 253 268 316 292 284 282 283
229 233 252 247 267 317 264 284 334 223 350 358 10 1 350 350 358 340 328 311 330 335 318 295 303 304 306 292 281 282 279 291 299 302 305 325 1 340 337 332 291 286 267 279 304 319 276 286 281
224 257 255 259 274 284 345 300 300 292 337 343 344 3 353 345 343 336 334 340 334 338 302 306 295 319 300 293 298 273 280 289 299 297 304 293 301 336 333 312 298 284 283 285 288 292 292 284 287
226 257 250 252 259 289 283 257 321 294 269 340 331 2 346 342 339 339 348 353 341 24 353 355 344 334 15 317 299 294 294 285 295 290 306 225 304 321 321 326 318 314 311 305 297 293 285 283 285
234 235 260 249 270 276 267 156 267 299 4 326 337 341 337 341 339 348 352 340 66 45 24 28 23 11 315 304 301 246 302 287 293 290 283 286 289 299 309 320 320 322 319 316 311 303 294 283 275
235 243 251 261 260 256 238 218 275 269 293 312 343 333 337 338 347 2 14 63 23 5 5 8 20 38 41 36 35 6 318 327 279 104 343 296 291 304 314 320 320 321 321 321 314 313 307 293 281
232 231 234 244 252 253 257 246 244 269 276 305 318 320 323 329 343 345 344 1 352 349 354 3 4 13 16 15 5 2 356 354 334 312 305 305 305 307 314 316 314 311 315 317 312 306 306 305 290
229 241 244 240 251 276 302 311 266 268 279 296 302 291 300 321 330 311 328 343 338 332 325 325 340 353 360 357 351 345 341 334 324 314 311 308 308 310 313 310 308 309 310 312 311 308 302 297 295
226 223 249 237 238 252 244 261 261 277 276 288 296 257 286 304 308 322 335 341 325 317 313 312 314 327 335 338 343 343 336 321 315 309 306 305 307 313 313 313 311 313 312 311 312 310 306 299 298
237 234 234 233 242 240 252 252 239 241 112 285 304 333 301 288 296 307 303 316 323 309 306 302 297 309 320 329 331 329 329 329 327 324 322 321 317 314 311 308 308 308 307 307 308 307 306 304 299
224 245 235 237 232 232 243 267 283 300 287 309 286 279 304 287 287 298 290 300 312 312 297 303 304 304 311 317 322 319 321 320 316 314 315 314 312 308 306 306 306 307 305 303 302 302 301 299 296
Height
5887 5886 5886 5884 5883 5885 5879 5880 5880 5880 5880 5879 5879 5878 5877 5876 5875 5874 5870 5867 5871 5873 5875 5875 5877 5877 5875 5877 5880 5882 5883 5881 5880 5880 5881 5881 5881 5881 5881 5883 5884 5884 5882 5882 5882 5882 5882 5883 5883
5890 5888 5889 5885 5893 5887 5883 5882 5881 5881 5881 5880 5880 5879 5878 5876 5875 5874 5873 5867 5873 5875 5878 5879 5881 5881 5880 5880 5880 5880 5884 5883 5883 5882 5882 5884 5883 5884 5883 5884 5884 5884 5883 5883 5882 5882 5882 5882 5883
5894 5892 5890 5896 5893 5889 5887 5885 5884 5884 5883 5882 5881 5880 5878 5878 5877 5876 5875 5874 5877 5878 5879 5881 5882 5883 5882 5882 5881 5883 5884 5884 5885 5884 5885 5885 5886 5886 5886 5885 5885 5884 5884 5884 5883 5882 5882 5882 5883
5899 5895 5896 5899 5895 5892 5890 5888 5886 5885 5883 5882 5881 5880 5880 5879 5878 5878 5878 5877 5878 5880 5881 5882 5883 5883 5883 5884 5884 5885 5885 5885 5886 5886 5887 5887 5887 5887 5887 5886 5885 5885 5884 5884 5884 5883 5884 5883 5883
5900 5902 5909 5902 5899 5896 5893 5890 5888 5886 5885 5883 5882 5881 5881 5880 5879 5879 5879 5879 5879 5881 5881 5882 5883 5884 5885 5885 5886 5887 5887 5888 5888 5888 5888 5889 5889 5888 5888 5887 5886 5885 5885 5885 5885 5884 5883 5883 5883
5904 5917 5914 5907 5903 5900 5897 5894 5891 5889 5887 5886 5884 5883 5883 5881 5880 5880 5880 5881 5881 5881 5882 5882 5883 5884 5885 5886 5888 5889 5888 5889 5890 5889 5890 5889 5888 5888 5889 5888 5887 5886 5886 5885 5884 5884 5883 5883 5883
5919 5920 5917 5912 5908 5904 5901 5898 5895 5892 5890 5887 5886 5885 5885 5884 5882 5883 5883 5882 5883 5883 5883 5884 5884 5885 5886 5887 5888 5889 5890 5890 5890 5890 5890 5888 5888 5888 5887 5887 5887 5886 5886 5885 5884 5884 5884 5883 5883
5913 5927 5922 5915 5911 5906 5903 5900 5897 5895 5893 5891 5888 5887 5887 5886 5885 5885 5885 5885 5886 5886 5885 5885 5885 5887 5887 5887 5889 5889 5890 5890 5891 5891 5890 5889 5889 5888 5888 5888 5887 5887 5887 5886 5885 5885 5884 5884 5883
5919 5927 5923 5918 5914 5909 5904 5902 5900 5898 5895 5893 5891 5890 5890 5888 5887 5886 5886 5886 5886 5886 5886 5885 5886 5886 5887 5888 5888 5889 5890 5891 5891 5891 5890 5890 5889 5890 5889 5888 5888 5888 5887 5887 5886 5885 5885 5884 5884
5931 5926 5921 5919 5917 5912 5908 5905 5902 5900 5898 5896 5894 5893 5892 5891 5889 5888 5887 5887 5886 5886 5885 5886 5886 5886 5887 5888 5889 5890 5891 5891 5891 5890 5890 5890 5891 5890 5890 5889 5889 5888 5887 5887 5887 5885 5885 5884 5884
5929 5926 5924 5921 5919 5916 5910 5907 5904 5902 5902 5900 5898 5898 5896 5894 5892 5890 5890 5889 5889 5887 5886 5886 5886 5886 5886 5887 5888 5890 5891 5890 5889 5889 5889 5891 5891 5890 5889 5889 5889 5888 5888 5887 5882 5879 5883 5883 5883
5928 5925 5925 5922 5920 5917 5914 5911 5911 5909 5908 5905 5902 5900 5898 5896 5895 5894 5893 5892 5891 5890 5888 5887 5886 5886 5886 5886 5888 5889 5889 5889 5889 5888 5889 5891 5891 5890 5888 5888 5887 5887 5888 5886 5881 5875 5883 5882 5882
5932 5929 5927 5924 5922 5920 5918 5915 5914 5912 5910 5907 5904 5902 5901 5898 5896 5894 5892 5891 5891 5891 5889 5889 5888 5887 5886 5886 5887 5888 5889 5890 5890 5891 5891 5891 5890 5889 5888 5887 5886 5885 5885 5886 5885 5885 5883 5881 5880
5932 5930 5929 5927 5925 5923 5921 5918 5916 5915 5913 5910 5907 5905 5903 5902 5900 5899 5897 5895 5893 5891 5890 5889 5888 5888 5889 5890 5890 5890 5891 5892 5892 5891 5891 5890 5889 5889 5887 5887 5886 5884 5884 5884 5884 5883 5882 5881 5879
5932 5933 5933 5931 5928 5924 5916 5917 5921 5919 5916 5913 5910 5908 5905 5904 5903 5902 5900 5898 5896 5894 5892 5890 5891 5891 5893 5893 5893 5894 5894 5892 5892 5892 5891 5890 5889 5888 5887 5886 5884 5883 5883 5881 5880 5880 5880 5878 5877
5933 5934 5932 5934 5931 5927 5922 5923 5924 5923 5919 5915 5913 5911 5908 5907 5906 5904 5902 5900 5898 5896 5895 5893 5893 5895 5895 5895 5895 5896 5895 5894 5894 5893 5892 5890 5887 5886 5885 5885 5884 5883 5881 5880 5879 5878 5876 5875 5876
5935 5924 5937 5936 5932 5930 5928 5927 5925 5924 5921 5918 5916 5914 5911 5908 5906 5904 5901 5900 5899 5899 5898 5896 5896 5897 5896 5896 5896 5895 5894 5895 5894 5894 5891 5887 5882 5883 5883 5883 5882 5882 5880 5879 5878 5876 5875 5875 5874
5925 5942 5938 5939 5934 5931 5929 5927 5926 5925 5923 5921 5918 5915 5913 5910 5909 5906 5901 5898 5898 5898 5899 5899 5899 5898 5898 5896 5896 5896 5895 5895 5893 5892 5890 5888 5881 5879 5879 5879 5879 5880 5880 5879 5878 5877 5875 5873 5873
5937 5939 5939 5937 5933 5932 5933 5931 5927 5925 5923 5922 5920 5917 5914 5913 5912 5908 5905 5901 5896 5897 5898 5898 5899 5898 5897 5897 5896 5897 5895 5894 5893 5891 5888 5886 5885 5882 5878 5878 5878 5880 5881 5879 5878 5876 5874 5874 5872
5935 5938 5938 5936 5932 5933 5935 5932 5929 5924 5923 5922 5920 5918 5914 5913 5912 5909 5904 5904 5901 5897 5897 5897 5896 5896 5894 5894 5895 5895 5894 5893 5893 5891 5888 5886 5885 5884 5882 5880 5880 5880 5880 5879 5878 5876 5875 5873 5872
5934 5937 5938 5934 5932 5933 5933 5925 5925 5925 5924 5922 5920 5918 5915 5912 5911 5905 5902 5902 5900 5901 5896 5895 5893 5892 5891 5890 5891 5891 5891 5890 5889 5888 5888 5887 5886 5885 5883 5882 5882 5882 5882 5881 5878 5875 5874 5873 5871
5934 5934 5931 5930 5931 5934 5928 5928 5921 5907 5920 5922 5920 5918 5915 5912 5907 5905 5900 5898 5900 5902 5893 5891 5891 5889 5887 5887 5886 5885 5886 5886 5885 5884 5885 5884 5885 5884 5882 5882 5881 5881 5879 5877 5876 5875 5872 5871 5869
5930 5929 5927 5926 5927 5930 5933 5928 5917 5919 5914 5918 5919 5918 5915 5913 5908 5901 5897 5894 5895 5889 5892 5891 5888 5887 5883 5885 5881 5882 5883 5883 5882 5881 5882 5882 5881 5881 5881 5880 5879 5879 5876 5875 5873 5871 5870 5867 5865
5924 5924 5924 5924 5927 5929 5925 5924 5916 5913 5909 5917 5917 5916 5915 5911 5908 5904 5898 5888 5894 5894 5894 5890 5889 5883 5880 5880 5875 5874 5877 5879 5879 5879 5878 5878 5878 5877 5876 5876 5875 5873 5873 5872 5870 5867 5865 5863 5860
5918 5921 5923 5926 5927 5927 5917 5911 5920 5915 5917 5917 5916 5915 5914 5910 5908 5905 5902 5898 5897 5896 5895 5892 5890 5887 5884 5885 5881 5880 5879 5876 5876 5877 5877 5876 5876 5874 5873 5871 5870 5870 5869 5867 5865 5862 5859 5857 5855
5914 5917 5920 5923 5923 5917 5905 5915 5920 5916 5916 5914 5913 5913 5912 5911 5909 5908 5905 5902 5900 5898 5896 5894 5891 5890 5887 5885 5884 5883 5882 5880 5880 5877 5877 5875 5873 5873 5868 5866 5866 5865 5862 5860 5859 5857 5854 5851 5848
5911 5910 5915 5918 5920 5918 5910 5913 5896 5908 5912 5910 5910 5910 5910 5909 5908 5907 5905 5903 5901 5899 5897 5895 5892 5890 5888 5886 5885 5883 5881 5879 5879 5877 5875 5873 5870 5867 5865 5863 5861 5858 5855 5853 5851 5849 5847 5844 5842
5901 5911 5912 5912 5915 5915 5912 5918 5916 5907 5906 5908 5906 5907 5907 5907 5906 5905 5903 5902 5900 5898 5897 5895 5893 5890 5888 5887 5884 5881 5880 5879 5877 5875 5872 5869 5866 5862 5859 5856 5854 5851 5849 5846 5843 5841 5840 5837 5834
5895 5898 5903 5908 5912 5913 5915 5914 5901 5890 5897 5907 5904 5904 5904 5904 5903 5903 5902 5900 5898 5896 5894 5892 5890 5888 5886 5884 5882 5880 5878 5874 5870 5868 5865 5863 5860 5858 5855 5852 5849 5845 5842 5839 5836 5832 5831 5828 5826
5890 5893 5896 5902 5906 5909 5909 5905 5894 5896 5889 5900 5902 5901 5901 5901 5901 5900 5899 5898 5896 5893 5891 5889 5887 5885 5883 5881 5878 5876 5873 5870 5868 5865 5862 5859 5856 5853 5849 5845 5841 5837 5834 5832 5829 5826 5823 5821 5819